{"data":{"norad_id":68120,"epoch":"2026-05-25T03:32:35.040192Z","epoch_age_seconds":62491,"freshness":"FRESH","line1":"1 68120U 26044V   26145.14762778  .00034560  00000+0  10670-2 0  9996","line2":"2 68120  97.2841 105.8283 0002072  96.9832 263.1647 15.33472951 13301","mean_motion":15.33472951,"eccentricity":0.0002072,"inclination_deg":97.2841,"raan_deg":105.8283,"arg_perigee_deg":96.9832,"mean_anomaly_deg":263.1647,"bstar":0.001067,"rev_number":1330,"period_min":93.90449300465,"perigee_km":464.04201992938,"apogee_km":466.87800653166,"semimajor_km":6843.5970132305,"source":"CELESTRAK","updated_at":"2026-05-25T13:38:21.844795Z"}}